EW4993 Weather Reports


Display with metric or nautical units.
time (UTC)temp
F
wind
direction
speed
MPH
gust
MPH
rain 1hr
in
rain 24hr
in
rain mn
in
humidity
%
barometer
mb
20260905064508 78 216 4.0 6.0 0.00 0.01 0.01 62 988.6
20260905063008 78 210 3.0 5.0 0.00 0.01 0.01 64 988.6
20260905061508 79 208 3.0 5.0 0.00 0.01 0.01 64 988.7
20260905060009 79 207 3.0 6.0 0.00 0.01 0.01 65 988.8
20260905054608 79 210 3.0 6.0 0.00 0.01 0.01 65 988.6
20260905053049 79 188 3.0 6.0 0.00 0.01 0.01 66 988.7
20260905051604 79 185 2.0 4.0 0.00 0.01 0.01 67 988.7
20260905050030 80 184 3.0 5.0 0.00 0.01 0.01 68 988.8
20260905044529 80 184 2.0 5.0 0.00 0.01 0.01 68 988.7
20260905043017 81 184 3.0 5.0 0.00 0.01 0.01 68 988.7
20260905041511 81 179 4.0 7.0 0.00 0.01 0.01 68 988.6
20260905040106 82 177 5.0 7.0 0.00 0.01 0.01 68 988.6
20260905034554 82 178 5.0 7.0 0.00 0.01 0.01 68 988.6
20260905033032 82 175 4.0 7.0 0.00 0.01 0.01 68 988.6
20260905031538 83 169 4.0 6.0 0.00 0.01 0.01 68 988.4
20260905030018 83 155 3.0 6.0 0.00 0.01 0.01 68 988.4
20260905024537 84 153 3.0 7.0 0.00 0.01 0.01 67 988.5
20260905023021 84 165 4.0 7.0 0.00 0.01 0.01 67 988.2
20260905021515 85 171 6.0 7.0 0.00 0.01 0.01 67 988.0
20260905020015 85 169 7.0 9.0 0.00 0.01 0.01 67 987.8
20260905014514 85 159 6.0 10.0 0.00 0.01 0.01 67 987.5
20260905013013 86 163 6.0 10.0 0.00 0.01 0.01 67 987.6
20260905011512 87 159 5.0 9.0 0.00 0.01 0.01 65 987.4
20260905010012 87 167 7.0 11.0 0.00 0.01 0.01 64 987.2
20260905004511 87 153 7.0 10.0 0.00 0.01 0.01 62 987.0
20260905003054 87 153 6.0 11.0 0.00 0.01 0.01 61 987.0
20260905001554 87 190 7.0 9.0 0.00 0.01 0.01 60 986.9
20260905000036 87 176 6.0 10.0 0.00 0.01 0.01 60 987.0
20260904234537 88 200 7.0 11.0 0.00 0.01 0.01 59 986.9
20260904233016 89 184 8.0 15.0 0.00 0.01 0.01 58 986.8
20260904231516 89 155 10.0 17.0 0.00 0.01 0.01 57 986.8
20260904230109 91 150 11.0 17.0 0.00 0.01 0.01 54 986.7
20260904224615 94 137 11.0 17.0 0.00 0.01 0.01 49 986.6
20260904223058 94 124 9.0 16.0 0.00 0.01 0.01 45 986.7
20260904221539 94 138 10.0 18.0 0.00 0.01 0.01 45 986.4
20260904220025 95 138 8.0 16.0 0.00 0.01 0.01 43 986.6
20260904214523 94 140 9.0 16.0 0.00 0.01 0.01 47 986.9
20260904213018 94 115 9.0 16.0 0.00 0.01 0.01 51 987.2
20260904211516 93 132 10.0 20.0 0.00 0.01 0.01 51 987.3
20260904210016 94 206 6.0 13.0 0.00 0.01 0.01 44 987.3
20260904204513 94 150 9.0 17.0 0.00 0.01 0.01 44 987.5
20260904203011 93 179 6.0 14.0 0.00 0.01 0.01 49 987.7
20260904201509 93 211 10.0 18.0 0.00 0.01 0.01 53 987.9
20260904200115 92 240 9.0 15.0 0.00 0.01 0.01 54 988.1
20260904194554 92 210 6.0 13.0 0.00 0.01 0.01 54 988.2
20260904193051 92 195 8.0 14.0 0.00 0.01 0.01 54 988.4
20260904191549 91 193 8.0 12.0 0.00 0.01 0.01 55 988.5
20260904190048 91 200 8.0 15.0 0.00 0.01 0.01 54 988.9
20260904184548 90 184 11.0 18.0 0.00 0.01 0.01 55 989.0
20260904183047 91 192 9.0 17.0 0.00 0.01 0.01 52 989.0
20260904181546 91 205 10.0 15.0 0.00 0.01 0.01 52 989.0
20260904180028 91 218 11.0 15.0 0.00 0.01 0.01 53 989.3
20260904174526 91 225 9.0 19.0 0.00 0.01 0.01 51 989.5
20260904173007 90 166 7.0 14.0 0.00 0.01 0.01 57 989.6
20260904171505 89 198 10.0 14.0 0.00 0.01 0.01 61 989.6
20260904170054 89 180 9.0 14.0 0.00 0.01 0.01 63 989.7
20260904164553 89 201 7.0 16.0 0.00 0.01 0.01 61 989.7
20260904163055 87 218 4.0 10.0 0.00 0.01 0.01 63 989.7
20260904161556 87 167 5.0 12.0 0.00 0.01 0.01 66 989.8
20260904160046 86 225 10.0 16.0 0.00 0.01 0.01 66 989.6
20260904154544 85 219 7.0 14.0 0.00 0.01 0.01 67 989.8
20260904153102 84 221 10.0 12.0 0.00 0.01 0.01 67 989.6
20260904151540 84 233 8.0 12.0 0.00 0.01 0.01 66 989.6
20260904150023 83 236 11.0 16.0 0.00 0.01 0.01 63 989.5
20260904144518 82 250 9.0 14.0 0.00 0.01 0.01 57 989.5
20260904143014 81 242 10.0 14.0 0.00 0.01 0.01 48 989.2
20260904141514 81 244 10.0 13.0 0.00 0.01 0.01 37 989.1
20260904140009 80 242 8.0 14.0 0.00 0.01 0.01 31 989.1
20260904134507 80 251 7.0 12.0 0.00 0.01 0.01 23 989.0
20260904133005 79 255 4.0 12.0 0.00 0.01 0.01 18 988.9
20260904131502 78 252 6.0 11.0 0.00 0.01 0.01 18 988.8
20260904130055 78 250 4.0 8.0 0.00 0.01 0.01 19 988.9
20260904124547 78 242 6.0 11.0 0.01 0.01 0.01 20 988.8
20260904123049 78 244 5.0 10.0 0.01 0.01 0.01 21 988.7
20260904121544 78 240 8.0 12.0 0.01 0.01 0.01 22 988.4
20260904120047 78 242 8.0 11.0 0.01 0.01 0.01 25 988.3
20260904114538 78 236 5.0 8.0 0.00 0.00 0.00 30 988.4
20260904113036 78 218 5.0 9.0 0.00 0.00 0.00 34 988.3
20260904111532 79 181 6.0 9.0 0.00 0.00 0.00 40 988.3
20260904110017 79 168 8.0 9.0 0.00 0.00 0.00 43 988.2
20260904104515 79 184 7.0 9.0 0.00 0.00 0.00 44 988.1
20260904103012 79 186 5.0 10.0 0.00 0.00 0.00 44 988.0
20260904101517 79 193 7.0 10.0 0.00 0.00 0.00 45 987.9
20260904100010 79 175 6.0 11.0 0.00 0.00 0.00 46 987.9
20260904094508 79 184 6.0 9.0 0.00 0.00 0.00 47 987.8
20260904093007 79 183 6.0 9.0 0.00 0.00 0.00 47 987.6
20260904091505 79 190 5.0 8.0 0.00 0.00 0.00 47 987.6
20260904090051 79 186 6.0 10.0 0.00 0.00 0.00 46 987.7
20260904084557 79 202 6.0 8.0 0.00 0.00 0.00 47 987.7
20260904083052 79 202 4.0 7.0 0.00 0.00 0.00 48 987.7
20260904081547 79 196 4.0 7.0 0.00 0.00 0.00 50 987.9
20260904080105 79 197 5.0 10.0 0.00 0.00 0.00 53 987.9
20260904074545 80 194 8.0 12.0 0.00 0.00 0.00 56 987.7
20260904073045 80 217 8.0 14.0 0.00 0.00 0.00 57 987.7
20260904071544 80 213 9.0 12.0 0.00 0.00 0.00 57 987.9
20260904070050 80 213 8.0 11.0 0.00 0.00 0.00 57 988.0